Temperature
4 5 5 5 5 5 5 5 6 7 7 6 6 5 5 5 5 4 4 4 4 3 3 4 4 5 5 5 5 5 6 6 6 6 6 6 6 6 6 6 6 5 5 5
3 5 5 4 5 5 5 6 6 6 6 6 6 5 5 4 4 3 3 3 2 3 3 3 3 4 4 5 5 5 5 5 5 5 5 5 5 5 5 5 5 5 4 4
3 4 4 3 3 4 5 5 5 5 5 5 4 4 4 3 3 3 2 2 2 2 2 2 3 3 4 4 4 4 4 4 5 4 4 4 4 5 5 4 4 4 4 3
2 2 2 2 3 3 3 3 4 4 4 4 3 3 3 3 3 2 2 1 1 1 2 2 2 3 3 3 3 3 4 4 4 4 4 4 4 4 4 4 3 3 3 3
2 2 2 2 2 2 2 2 2 2 2 3 3 2 2 2 2 1 1 1 1 1 2 2 2 2 3 3 3 3 3 3 3 3 3 3 3 3 3 3 3 3 2 2
2 2 2 1 1 1 2 1 1 1 1 1 1 1 1 1 1 1 1 0 0 1 1 2 2 2 2 2 2 2 2 2 2 2 2 2 2 2 2 2 2 2 2 1
1 1 1 -1 -0 1 1 -0 -0 0 -0 -0 -0 -0 -0 0 -0 -0 -0 -0 -0 0 1 1 1 1 1 1 1 1 1 1 1 1 1 1 1 1 1 1 1 1 1 1
0 1 -0 -2 -1 -1 -2 -1 -1 -1 -1 -1 -1 -1 -1 -1 -1 -1 -1 -1 -1 -0 -0 -0 0 1 1 1 1 1 1 1 1 1 1 1 1 0 0 0 0 0 0 0
-2 -2 -2 -2 -2 -2 -2 -2 -2 -2 -2 -2 -2 -2 -2 -2 -2 -2 -2 -2 -1 -1 -1 -1 -1 -0 0 0 0 0 0 0 0 0 0 -0 -0 -0 -0 -0 -0 -1 -0 -1
-2 -2 -2 -2 -3 -3 -3 -3 -3 -3 -3 -3 -3 -3 -3 -3 -3 -3 -3 -2 -2 -2 -2 -2 -1 -1 -1 -1 -1 -0 -0 -0 -1 -1 -1 -1 -1 -1 -1 -1 -1 -1 -1 -1
-3 -3 -3 -3 -3 -4 -4 -4 -4 -3 -3 -3 -3 -3 -3 -3 -3 -3 -3 -3 -3 -2 -2 -2 -2 -2 -2 -2 -1 -1 -1 -1 -1 -1 -1 -1 -1 -2 -2 -2 -2 -2 -2 -2
-4 -4 -4 -4 -4 -4 -4 -4 -4 -4 -4 -4 -4 -4 -3 -4 -4 -3 -3 -3 -3 -3 -3 -3 -2 -2 -2 -2 -2 -2 -2 -2 -2 -2 -2 -2 -2 -2 -3 -3 -3 -2 -2 -2
-5 -4 -4 -4 -5 -5 -5 -5 -5 -5 -4 -4 -4 -4 -4 -4 -4 -4 -4 -4 -3 -3 -3 -3 -3 -3 -3 -3 -3 -3 -3 -3 -3 -3 -3 -3 -3 -3 -3 -3 -3 -3 -3 -3
-5 -5 -5 -5 -5 -5 -5 -5 -5 -5 -5 -5 -4 -4 -4 -4 -4 -4 -4 -4 -4 -4 -4 -3 -3 -3 -3 -3 -3 -3 -3 -3 -3 -3 -3 -3 -3 -3 -4 -3 -3 -3 -3 -3
-6 -6 -6 -6 -6 -6 -6 -6 -5 -6 -5 -5 -5 -5 -5 -5 -5 -5 -5 -5 -5 -4 -4 -4 -4 -4 -4 -4 -4 -4 -4 -4 -4 -4 -4 -4 -4 -4 -4 -4 -4 -4 -4 -4
-6 -6 -6 -6 -6 -6 -6 -6 -6 -6 -6 -6 -6 -6 -6 -6 -6 -6 -5 -5 -5 -5 -5 -5 -4 -4 -4 -4 -4 -4 -4 -4 -4 -4 -4 -5 -5 -5 -5 -5 -5 -5 -4 -4
-6 -7 -7 -7 -6 -6 -6 -6 -6 -6 -6 -6 -6 -6 -6 -6 -6 -6 -6 -6 -6 -5 -5 -5 -5 -5 -5 -5 -5 -5 -5 -5 -5 -5 -5 -5 -5 -5 -5 -5 -5 -5 -5 -5
-6 -6 -6 -6 -6 -6 -6 -6 -6 -7 -7 -7 -7 -7 -7 -7 -7 -7 -7 -6 -6 -6 -6 -6 -5 -5 -5 -5 -5 -5 -5 -5 -5 -5 -5 -6 -6 -6 -6 -6 -6 -6 -6 -6
-6 -6 -6 -6 -6 -6 -6 -7 -7 -7 -7 -7 -7 -7 -7 -7 -7 -7 -7 -7 -6 -6 -6 -6 -6 -6 -6 -6 -6 -6 -6 -6 -6 -6 -6 -6 -6 -6 -6 -6 -6 -6 -6 -6
-6 -6 -6 -6 -6 -6 -7 -7 -7 -7 -7 -7 -7 -7 -7 -7 -7 -7 -7 -7 -7 -7 -7 -7 -6 -6 -6 -6 -6 -6 -6 -6 -6 -6 -6 -6 -7 -7 -7 -7 -7 -7 -7 -7
-7 -7 -6 -7 -7 -7 -7 -7 -7 -8 -8 -8 -8 -8 -8 -8 -8 -8 -7 -7 -7 -7 -7 -7 -7 -7 -7 -7 -7 -7 -7 -7 -7 -7 -7 -7 -7 -7 -7 -7 -7 -7 -7 -7
-7 -7 -7 -7 -7 -7 -7 -8 -8 -8 -8 -8 -8 -8 -8 -8 -8 -8 -8 -8 -7 -7 -7 -7 -7 -7 -7 -7 -7 -7 -7 -7 -7 -7 -7 -8 -8 -8 -8 -8 -8 -8 -8 -7
-7 -7 -7 -7 -8 -8 -8 -8 -8 -8 -8 -8 -8 -8 -8 -8 -8 -8 -8 -8 -8 -8 -8 -8 -8 -8 -8 -8 -8 -8 -8 -8 -8 -8 -8 -8 -8 -8 -8 -8 -8 -8 -8 -8
-7 -8 -8 -8 -8 -8 -8 -8 -8 -9 -9 -9 -9 -9 -9 -9 -9 -8 -8 -8 -8 -8 -8 -8 -8 -8 -8 -8 -8 -8 -8 -8 -8 -8 -8 -8 -8 -8 -8 -8 -8 -8 -8 -8
-8 -8 -8 -8 -8 -8 -9 -9 -9 -9 -9 -9 -9 -9 -9 -9 -9 -9 -9 -9 -9 -9 -9 -8 -8 -8 -8 -8 -8 -8 -8 -8 -8 -8 -8 -8 -8 -8 -8 -8 -8 -8 -8 -8
-8 -9 -9 -9 -9 -9 -9 -9 -9 -9 -9 -9 -9 -9 -9 -9 -9 -9 -9 -9 -9 -9 -9 -9 -9 -9 -9 -9 -9 -9 -9 -9 -9 -9 -9 -8 -8 -8 -8 -8 -8 -8 -8 -8
-9 -9 -9 -9 -9 -9 -9 -9 -9 -9 -10 -10 -10 -10 -10 -10 -10 -9 -9 -9 -9 -9 -9 -9 -9 -9 -9 -9 -9 -9 -9 -9 -9 -9 -9 -8 -8 -8 -8 -8 -8 -8 -8 -8
Wind_Speed
4 4 4 4 7 8 7 6 4 2 2 2 2 3 3 4 4 4 4 4 4 4 4 4 4 4 4 4 4 4 5 4 4 4 4 4 4 3 3 3 2 2 2 2
3 2 3 4 7 8 8 6 4 3 3 1 2 3 3 3 4 4 3 4 4 4 4 4 3 3 4 4 4 4 5 5 4 4 4 4 3 3 3 3 2 2 2 2
2 1 1 4 5 6 4 2 3 4 3 2 2 2 2 3 3 3 3 3 4 4 3 3 2 3 4 4 4 5 5 5 4 4 4 3 3 3 3 2 2 2 1 2
1 0 3 2 1 1 2 1 1 1 1 2 2 1 1 2 2 3 3 3 3 3 3 3 3 4 4 4 4 5 5 4 4 4 4 3 3 3 2 2 2 2 1 1
1 2 2 1 2 2 1 0 2 1 1 2 2 2 2 3 3 2 2 3 3 3 4 4 4 4 4 5 5 5 5 4 3 3 3 3 3 2 2 2 2 1 1 1
1 2 2 1 3 4 0 1 4 3 2 1 1 1 1 2 4 4 4 4 4 4 5 5 4 4 5 5 5 4 4 3 3 3 3 3 3 2 2 2 2 1 1 1
2 2 0 3 5 3 2 1 3 3 2 1 1 0 2 4 4 5 5 5 5 5 5 4 4 5 6 5 4 3 3 3 3 3 3 3 3 2 2 2 2 1 1 1
1 3 2 5 3 2 1 3 4 4 3 3 3 4 4 4 5 5 5 5 5 5 5 4 4 5 6 5 4 4 4 4 4 3 3 2 3 2 2 2 2 1 1 1
0 1 2 3 3 2 3 3 4 3 3 3 3 3 4 4 4 5 5 4 4 5 5 5 5 5 5 4 3 4 4 4 3 3 3 3 2 2 2 2 1 1 1 1
0 1 2 4 4 5 5 4 3 3 3 2 3 3 3 3 4 4 4 4 4 5 5 5 5 5 4 4 3 4 4 3 3 3 3 3 2 2 2 1 1 1 1 1
0 1 2 3 5 5 5 4 4 4 4 3 3 3 3 3 3 3 3 3 4 4 4 4 5 5 4 4 4 4 4 3 3 3 3 3 3 2 2 1 1 1 1 1
1 1 1 1 3 4 4 4 4 4 4 3 2 2 3 3 3 3 3 3 4 4 4 4 4 4 4 4 4 3 3 3 2 2 2 2 2 2 3 3 4 4 3 3
1 2 1 2 3 4 3 4 4 3 3 2 2 2 3 3 3 3 3 4 4 3 4 4 4 4 4 4 4 3 3 2 2 2 2 2 1 1 2 3 5 4 4 4
1 1 1 2 2 3 3 3 4 4 3 3 2 3 4 4 3 3 3 3 3 3 3 3 4 3 3 3 3 3 3 2 2 2 2 2 1 1 1 1 2 3 4 5
2 1 0 1 2 2 2 3 3 3 3 4 4 4 4 3 3 3 3 3 3 4 3 3 3 3 3 3 3 2 2 1 2 2 2 2 1 1 1 2 2 2 3 3
1 1 1 1 1 1 2 2 2 2 2 3 3 3 3 3 3 3 3 3 3 3 2 2 2 2 2 2 2 2 1 2 2 1 2 2 2 1 2 2 2 2 2 3
0 0 1 1 1 1 2 1 1 1 1 2 2 3 3 3 3 3 3 3 3 2 2 2 1 2 2 2 2 1 1 1 3 2 2 2 2 1 1 2 2 2 2 3
0 1 0 1 0 1 1 2 2 2 2 2 2 3 3 2 2 2 2 2 3 2 2 1 1 2 2 2 1 1 1 1 1 1 1 2 2 2 2 2 2 2 2 3
1 1 1 1 1 1 1 1 2 2 2 2 3 2 2 2 2 2 2 2 2 1 2 1 2 2 1 1 1 1 1 1 1 1 1 2 2 2 2 2 2 2 2 2
2 2 2 2 2 2 1 1 2 2 2 2 2 2 2 2 1 1 2 1 1 0 0 1 2 1 1 1 2 1 0 0 1 1 1 1 2 2 2 2 2 2 2 2
1 1 1 1 1 1 1 1 1 1 1 2 1 1 1 1 1 1 1 1 1 1 1 2 1 1 1 1 1 0 0 1 1 1 1 2 2 2 2 2 2 2 2 2
1 1 0 0 1 1 1 1 1 1 1 1 1 1 0 1 1 1 1 1 1 2 2 1 1 1 1 1 1 1 0 1 1 1 1 2 2 2 2 2 2 3 3 3
1 1 1 1 1 1 1 1 1 1 0 0 1 1 1 2 1 1 1 1 1 2 2 1 1 2 2 1 0 0 0 1 1 1 2 2 2 2 2 3 3 3 3 3
1 1 1 0 1 1 0 1 0 0 1 1 1 2 2 2 2 1 1 3 3 4 2 2 3 3 3 1 0 0 1 1 2 2 2 2 2 2 2 2 3 3 3 3
1 1 1 1 1 1 2 1 1 1 1 1 2 1 1 1 2 2 1 1 3 4 2 3 4 4 2 1 1 1 1 2 2 2 2 2 2 2 2 3 3 3 3 3
2 2 2 2 2 1 1 1 1 1 1 1 1 1 1 1 1 1 1 1 2 3 2 2 2 3 1 1 1 1 2 2 3 3 2 2 2 2 3 3 3 3 3 3
2 2 1 1 1 1 1 1 1 2 1 2 2 1 1 1 1 1 2 2 2 2 2 2 1 1 1 1 1 2 2 2 2 2 2 2 2 2 3 3 3 3 4 4
Wind_Direction
281 260 214 220 208 204 211 216 224 224 225 228 158 122 118 112 107 97 94 93 92 94 90 83 81 87 99 109 108 114 117 120 126 127 128 130 133 139 140 145 154 163 172 184
292 259 211 227 222 214 220 222 228 254 285 50 77 80 90 115 122 116 109 101 94 90 89 90 90 93 93 95 101 105 109 116 114 115 117 121 127 133 134 135 135 139 159 169
266 256 155 223 229 217 201 222 219 232 230 136 112 113 134 143 136 131 118 107 103 99 91 85 88 98 95 91 94 100 101 104 112 117 118 119 122 120 124 124 117 122 139 145
243 134 210 214 55 108 143 281 309 238 181 162 128 68 57 104 119 118 114 109 100 96 87 77 81 87 90 90 97 100 98 97 97 107 114 113 114 117 111 111 121 124 111 123
207 226 230 114 32 20 131 309 7 105 86 38 98 85 65 60 77 101 106 102 96 95 96 87 84 91 97 90 89 92 91 90 86 96 106 108 109 110 107 106 101 108 121 111
234 236 222 46 350 325 184 215 17 51 92 71 66 172 202 60 72 75 83 87 92 88 88 83 76 84 95 93 87 87 88 84 77 81 95 104 109 108 102 105 106 102 85 72
241 241 304 354 320 329 154 234 355 31 70 79 358 33 95 67 68 75 78 79 84 88 88 84 72 80 88 82 73 63 70 78 77 69 78 88 92 92 102 96 92 90 77 37
238 222 244 359 14 54 337 356 10 32 34 20 40 71 72 72 74 72 74 74 77 87 83 75 70 79 84 75 63 53 60 68 70 68 70 72 80 78 84 95 98 90 79 31
130 175 29 38 49 24 13 4 5 14 30 57 67 80 73 75 79 74 71 71 76 85 82 72 67 77 85 69 65 60 55 62 60 59 61 66 75 79 81 83 93 73 70 25
74 29 33 42 38 30 25 16 14 29 38 63 89 96 92 92 90 81 74 80 84 85 83 74 69 72 76 68 64 65 62 57 55 57 54 50 52 62 79 80 79 41 20 345
201 326 359 22 19 16 20 27 33 37 41 52 88 97 103 103 97 86 77 76 83 85 84 74 70 67 63 60 64 66 61 55 49 50 53 49 42 38 42 25 352 329 291 273
256 311 318 347 12 20 25 24 28 40 37 30 51 90 99 104 103 99 92 89 86 81 81 73 68 61 53 52 60 69 61 48 41 41 45 50 47 31 25 11 1 360 345 333
267 356 353 348 27 29 25 22 26 33 43 40 35 77 104 105 101 100 96 92 89 86 85 79 71 63 53 53 57 64 64 40 23 23 28 31 34 35 13 7 9 5 357 352
33 22 1 15 29 27 32 37 42 40 41 46 52 81 97 97 93 93 90 89 88 86 81 74 70 61 53 54 57 59 56 30 17 16 12 12 10 1 354 348 342 347 348 350
25 21 97 46 46 45 52 54 52 44 45 47 60 75 89 96 93 84 79 82 85 83 76 72 67 54 51 53 57 59 47 31 24 14 1 359 358 352 342 336 330 330 338 338
360 34 75 83 60 49 58 59 60 47 54 60 63 69 81 89 87 80 76 78 88 84 76 71 54 35 47 51 49 52 46 16 6 8 4 356 355 358 343 334 331 332 329 327
134 116 23 15 24 31 36 43 56 54 64 71 86 91 89 87 83 76 66 65 73 68 62 66 35 22 40 47 55 52 40 8 358 357 357 347 344 342 332 333 332 325 319 321
199 167 192 239 278 35 31 38 44 46 55 72 88 91 89 88 89 80 67 65 68 56 43 39 28 36 37 29 37 51 26 10 358 349 347 344 339 328 325 323 318 314 314 315
82 89 72 63 73 82 66 55 52 50 50 62 76 81 83 84 85 77 66 57 58 37 2 27 20 24 25 14 22 59 41 356 343 340 340 334 335 335 332 326 318 314 316 322
71 67 66 61 61 78 78 72 72 62 55 68 79 74 60 50 61 75 71 33 341 327 348 353 10 20 8 14 8 36 358 333 331 330 333 335 329 326 324 320 318 316 318 319
85 77 77 71 58 66 88 90 95 83 62 69 81 82 49 20 21 36 77 1 333 358 345 328 348 357 358 357 352 19 12 332 321 315 314 317 318 318 320 320 316 313 314 315
158 135 130 118 110 81 68 81 98 98 70 53 45 31 7 335 341 353 312 257 297 324 345 343 340 318 330 338 20 43 18 333 311 302 298 299 300 303 309 310 309 310 310 308
208 206 192 193 170 150 66 74 100 121 154 237 268 274 273 287 293 271 295 303 312 316 329 306 292 303 316 342 30 11 316 303 297 294 292 289 292 295 296 299 300 302 302 302
208 208 205 182 135 129 209 269 230 222 229 255 265 264 262 279 296 274 260 291 304 308 313 302 304 305 310 337 318 277 271 275 276 280 282 282 283 285 286 290 294 295 298 302
202 200 189 176 184 212 227 230 209 212 234 269 278 278 266 254 256 278 287 284 292 304 315 305 301 306 318 320 284 268 263 260 258 262 266 271 277 283 286 288 291 296 299 303
206 204 202 203 211 217 206 194 208 223 224 256 277 269 260 255 258 271 281 282 280 296 302 301 299 299 301 278 267 267 265 276 283 280 275 276 283 287 288 288 292 297 303 307
203 203 199 206 215 207 197 197 213 230 229 235 265 274 264 262 265 271 276 287 289 289 286 286 282 272 267 260 258 269 274 275 275 276 281 286 289 290 295 299 304 310 312 310
Height
1443 1439 1440 1441 1443 1444 1447 1447 1449 1445 1446 1447 1448 1450 1452 1453 1455 1457 1458 1459 1459 1460 1462 1463 1464 1466 1468 1470 1473 1475 1477 1480 1483 1485 1488 1490 1492 1494 1496 1497 1498 1499 1500 1501
1443 1438 1439 1441 1440 1441 1443 1443 1444 1446 1448 1447 1449 1451 1453 1454 1456 1457 1459 1459 1460 1461 1462 1463 1464 1465 1467 1469 1472 1474 1476 1478 1481 1483 1485 1487 1489 1491 1492 1494 1495 1496 1497 1497
1445 1440 1441 1445 1443 1442 1442 1443 1444 1446 1449 1449 1451 1452 1453 1455 1456 1457 1458 1459 1460 1460 1461 1462 1464 1465 1467 1469 1471 1473 1475 1477 1479 1481 1482 1484 1486 1488 1489 1490 1491 1492 1493 1494
1447 1446 1449 1448 1443 1443 1444 1446 1446 1447 1448 1450 1452 1453 1454 1455 1456 1457 1458 1459 1459 1460 1461 1462 1464 1465 1467 1469 1470 1472 1474 1475 1477 1479 1480 1482 1483 1485 1486 1487 1488 1489 1490 1491
1450 1448 1445 1446 1446 1446 1447 1450 1449 1449 1450 1451 1452 1453 1455 1456 1456 1457 1458 1458 1459 1460 1461 1462 1463 1465 1466 1468 1470 1471 1473 1474 1476 1477 1478 1480 1481 1482 1483 1484 1485 1486 1487 1488
1448 1448 1446 1451 1449 1447 1449 1452 1452 1451 1451 1452 1452 1454 1456 1456 1456 1456 1457 1458 1458 1459 1460 1462 1463 1464 1466 1467 1469 1471 1472 1473 1475 1476 1477 1478 1479 1480 1481 1482 1483 1484 1484 1485
1450 1451 1451 1455 1450 1448 1454 1456 1454 1453 1453 1453 1453 1455 1455 1455 1455 1456 1456 1457 1458 1459 1460 1461 1462 1464 1465 1467 1469 1470 1471 1473 1474 1475 1476 1477 1477 1478 1479 1480 1481 1481 1482 1482
1452 1452 1457 1456 1453 1455 1457 1455 1454 1453 1454 1454 1453 1453 1453 1454 1455 1455 1456 1457 1458 1459 1460 1461 1462 1464 1465 1466 1468 1470 1471 1471 1472 1473 1474 1475 1476 1477 1477 1478 1478 1479 1479 1480
1458 1461 1459 1457 1456 1456 1455 1455 1454 1454 1454 1454 1453 1454 1454 1455 1455 1456 1456 1457 1458 1459 1460 1461 1462 1464 1465 1466 1467 1469 1470 1470 1471 1472 1473 1473 1474 1475 1475 1476 1476 1477 1477 1477
1458 1458 1457 1457 1456 1456 1455 1455 1454 1454 1454 1454 1454 1454 1455 1455 1455 1456 1457 1458 1458 1459 1460 1461 1462 1464 1464 1465 1467 1468 1469 1470 1470 1471 1471 1472 1473 1473 1473 1474 1474 1474 1474 1475
1459 1459 1457 1457 1457 1456 1456 1455 1454 1454 1454 1454 1454 1454 1455 1455 1456 1457 1457 1458 1459 1460 1460 1461 1462 1463 1464 1465 1466 1467 1468 1469 1469 1470 1470 1471 1471 1472 1472 1472 1473 1473 1473 1473
1461 1460 1459 1459 1457 1457 1456 1455 1454 1454 1453 1454 1454 1454 1454 1455 1456 1457 1458 1459 1459 1460 1461 1462 1463 1463 1464 1465 1466 1466 1467 1467 1468 1468 1469 1469 1470 1470 1471 1471 1471 1471 1471 1472
1460 1459 1458 1458 1457 1457 1456 1455 1455 1454 1454 1454 1454 1454 1454 1455 1456 1457 1458 1459 1459 1460 1461 1462 1462 1463 1464 1465 1465 1466 1466 1466 1467 1467 1467 1468 1468 1468 1468 1469 1470 1469 1469 1469
1459 1458 1458 1458 1457 1457 1456 1455 1454 1454 1454 1454 1454 1454 1454 1455 1456 1456 1457 1458 1459 1460 1461 1461 1462 1463 1464 1464 1465 1465 1465 1466 1466 1466 1466 1466 1466 1467 1467 1467 1467 1467 1467 1467
1458 1458 1458 1457 1457 1456 1456 1455 1454 1454 1454 1454 1454 1454 1454 1454 1455 1456 1457 1458 1459 1459 1460 1461 1461 1462 1463 1464 1464 1464 1464 1465 1465 1465 1465 1465 1465 1465 1465 1465 1465 1464 1464 1464
1457 1457 1457 1457 1456 1456 1456 1455 1454 1454 1454 1454 1454 1454 1454 1454 1455 1455 1456 1457 1458 1458 1459 1460 1460 1461 1462 1462 1463 1463 1463 1463 1464 1463 1463 1463 1463 1463 1463 1463 1463 1462 1462 1462
1455 1455 1456 1455 1455 1455 1455 1455 1454 1454 1454 1454 1454 1454 1454 1454 1454 1455 1456 1457 1457 1458 1458 1459 1460 1460 1461 1461 1461 1462 1462 1462 1462 1462 1462 1462 1462 1461 1461 1461 1461 1460 1460 1460
1455 1455 1455 1455 1455 1454 1454 1454 1454 1454 1454 1454 1454 1454 1454 1454 1454 1454 1455 1456 1456 1457 1458 1458 1459 1459 1460 1460 1460 1460 1460 1460 1460 1460 1460 1460 1460 1460 1459 1459 1458 1458 1458 1457
1454 1454 1454 1454 1454 1454 1454 1453 1453 1453 1454 1454 1454 1454 1453 1453 1454 1454 1455 1455 1455 1456 1456 1457 1458 1458 1458 1458 1458 1458 1459 1459 1458 1458 1458 1458 1458 1457 1457 1457 1456 1456 1455 1455
1453 1453 1453 1453 1454 1453 1453 1453 1453 1453 1453 1453 1453 1453 1453 1453 1453 1454 1454 1454 1454 1454 1455 1456 1456 1456 1456 1456 1457 1456 1457 1457 1457 1456 1456 1456 1456 1456 1455 1455 1454 1454 1453 1453
1452 1452 1452 1452 1452 1452 1453 1452 1452 1452 1453 1453 1453 1453 1453 1453 1453 1453 1453 1453 1453 1454 1454 1454 1454 1454 1454 1454 1454 1454 1454 1454 1455 1455 1454 1454 1454 1454 1453 1453 1452 1452 1451 1450
1451 1451 1451 1451 1451 1451 1452 1452 1452 1452 1452 1452 1452 1452 1452 1452 1452 1452 1452 1452 1452 1452 1452 1452 1452 1452 1452 1452 1452 1452 1452 1452 1453 1453 1453 1452 1452 1452 1451 1451 1450 1449 1449 1448
1450 1450 1450 1450 1450 1450 1450 1450 1450 1450 1450 1450 1451 1451 1451 1450 1450 1450 1450 1450 1450 1450 1450 1450 1450 1450 1450 1450 1450 1450 1450 1450 1450 1451 1450 1450 1450 1450 1449 1449 1448 1447 1446 1446
1448 1448 1448 1448 1448 1448 1448 1448 1449 1449 1449 1449 1449 1449 1449 1449 1448 1448 1448 1448 1448 1448 1448 1448 1448 1448 1448 1448 1448 1448 1448 1448 1448 1448 1448 1448 1448 1448 1447 1446 1446 1445 1444 1444
1446 1446 1446 1446 1446 1446 1446 1446 1446 1447 1447 1447 1447 1447 1447 1447 1447 1446 1446 1446 1446 1446 1445 1446 1446 1446 1446 1446 1446 1446 1446 1446 1446 1446 1446 1446 1446 1445 1445 1444 1444 1443 1442 1442
1443 1443 1443 1444 1444 1444 1444 1445 1444 1445 1445 1444 1444 1445 1445 1444 1444 1444 1444 1444 1444 1443 1443 1443 1443 1443 1443 1443 1443 1444 1444 1444 1444 1444 1444 1444 1444 1443 1443 1442 1442 1441 1440 1440
1440 1441 1441 1441 1441 1442 1442 1442 1442 1442 1443 1442 1442 1442 1442 1442 1442 1441 1441 1441 1441 1441 1441 1441 1441 1441 1441 1441 1441 1441 1441 1442 1442 1442 1442 1442 1441 1441 1441 1440 1440 1439 1438 1438